Location: Cabeza Gorda
(40.0667°N, 4.9667°W)
Time: 18:42:44
(UTC+00:00)

ARIANE 5 R/B - Pass Details

Date: 15 January 2026
Orbit: 746 x 793 km, 98.8° (Epoch: 11 February)

Event Time Altitude Azimuth Distance (km) Brightness Sun altitude
Rises 06:43:17 0° 17° (NNE) 3,260 5.8 -10.8°
Reaches altitude 10° 06:45:39 10° 21° (NNE) 2,321 5.0 -10.4°
Maximum altitude 06:50:41 59° 101° (E) 881 3.2 -9.5°
Drops below altitude 10° 06:55:38 10° 181° (S) 2,276 5.2 -8.6°
Sets 06:57:56 0° 185° (S) 3,191 5.9 -8.2°
